Wind_Speed
14 11 14 17 16 6 5 10 10 8 4 12 10 9 13 18 18 16 16 14 12 10 9 8 5 3 5 5 6 9 13 18 20 17 17 15 14 14 14 15 17 17 17 19
9 15 16 13 14 8 12 11 7 3 4 10 7 10 11 19 21 18 17 16 14 13 12 9 6 5 4 3 6 10 14 19 20 15 14 13 13 13 15 16 18 18 17 17
14 13 10 10 11 13 13 13 11 7 9 6 6 10 14 16 18 18 16 14 14 14 14 10 7 4 3 4 6 10 14 17 18 17 14 13 12 13 16 18 19 19 22 18
14 6 11 13 15 17 17 19 9 11 14 5 15 3 16 17 16 17 19 19 16 14 13 11 8 6 4 4 6 10 13 15 15 16 13 15 14 16 16 17 20 19 21 20
11 13 14 12 16 17 12 8 16 17 12 6 13 6 9 14 15 17 21 19 16 13 14 12 9 7 5 5 6 9 12 13 13 13 14 13 14 13 14 16 19 18 19 19
13 2 12 12 3 9 10 13 13 11 6 10 12 12 6 11 17 16 19 15 13 15 14 13 11 8 5 4 6 8 10 11 12 13 14 14 14 15 16 16 18 19 19 21
15 15 6 11 14 17 11 16 8 9 9 7 6 7 9 8 5 15 18 16 17 16 15 13 10 6 4 3 6 7 10 11 12 12 13 15 14 14 14 17 16 18 18 19
13 16 17 16 13 10 18 14 10 6 8 3 5 6 4 5 5 7 17 19 19 17 14 12 9 6 3 3 6 8 9 10 11 12 12 12 13 13 14 14 16 15 18 17
13 9 17 10 10 11 13 8 3 4 3 10 3 5 6 6 8 14 19 20 19 17 15 12 9 6 3 4 6 7 8 8 10 11 11 13 14 14 13 15 15 15 16 16
3 6 10 7 9 3 9 12 6 8 8 9 3 6 6 13 14 15 19 20 19 17 15 12 8 6 4 4 5 6 6 7 8 9 11 11 12 11 13 15 15 15 17 17
9 4 8 9 10 12 6 8 5 5 4 9 10 2 6 5 15 17 20 20 19 17 15 12 8 6 4 4 3 5 5 5 6 8 10 10 9 11 13 15 16 18 17 19
14 3 7 8 1 4 4 9 11 9 5 4 6 6 3 2 13 17 19 19 18 16 14 11 7 5 3 2 3 3 4 5 6 7 8 8 8 10 11 14 15 17 18 20
11 6 7 7 5 2 7 4 4 2 4 8 9 3 2 7 13 16 19 19 18 16 14 10 7 5 4 2 3 3 3 3 5 6 7 7 8 9 12 13 15 16 18 18
13 4 9 8 6 4 5 8 8 8 7 3 9 4 6 10 14 18 19 19 18 16 15 11 8 6 5 3 3 3 2 2 4 5 6 8 10 9 10 12 14 15 17 18
7 7 5 4 3 2 2 10 9 8 1 5 7 6 4 11 15 19 19 19 18 17 15 11 9 7 5 4 3 4 2 2 3 4 6 7 9 9 9 11 13 16 17 19
4 4 7 3 4 7 3 6 6 5 3 1 2 3 1 12 16 19 21 20 20 18 15 12 10 9 7 4 4 5 4 2 2 3 5 6 7 8 8 10 13 15 14 15
6 7 5 3 1 7 6 11 11 8 5 3 6 5 13 14 18 22 22 21 20 17 15 13 11 9 7 5 5 6 5 3 1 2 4 4 5 7 8 9 10 12 14 16
9 6 2 4 6 8 4 2 4 7 5 7 3 8 12 13 15 17 19 20 18 16 15 13 11 9 7 5 4 6 5 4 2 0 2 2 3 5 6 7 8 9 12 15
3 5 5 4 6 2 8 7 9 9 9 10 7 9 12 13 15 14 18 18 17 16 14 13 11 10 7 4 5 5 5 5 3 2 1 1 2 3 5 6 8 9 11 13
4 2 2 4 12 6 4 6 6 4 10 15 12 15 17 20 10 10 22 20 17 15 14 14 13 11 8 4 3 5 5 6 5 3 3 2 1 2 6 8 9 10 10 12
6 3 8 7 6 5 5 9 8 9 4 12 15 17 20 15 4 19 25 21 18 16 15 14 13 11 8 5 2 1 4 5 6 4 4 3 2 4 7 10 12 11 11 13
7 6 5 4 6 11 11 11 7 4 4 9 13 16 18 10 13 20 23 22 20 18 17 15 13 11 9 5 2 1 2 4 6 5 5 5 5 6 7 11 13 12 12 11
5 2 0 3 4 4 14 5 4 3 5 8 13 17 19 16 19 20 21 21 20 19 16 13 12 11 8 6 3 2 4 3 5 5 6 6 7 7 7 11 12 12 12 11
5 5 2 3 5 5 9 6 4 4 4 9 13 19 19 19 20 20 20 21 20 18 15 12 12 10 7 4 5 4 4 4 4 5 6 6 7 8 7 8 10 11 11 12
3 10 6 2 4 4 7 11 7 8 11 14 16 17 17 20 19 19 21 21 19 17 14 11 10 8 7 3 5 3 4 3 3 4 5 6 5 6 6 8 9 10 10 9
8 6 6 1 8 1 5 14 12 14 15 16 18 18 16 18 20 19 20 20 19 16 14 11 9 7 5 4 4 3 3 2 2 2 2 3 4 5 7 8 10 9 10 11
Wind_Direction
187 190 197 190 210 356 261 216 214 216 109 201 220 204 191 187 198 195 190 190 184 183 173 165 154 227 288 306 332 336 339 342 351 356 357 359 360 355 356 359 359 356 354 355
180 219 204 201 211 244 233 216 179 145 209 214 206 221 203 197 207 201 199 196 194 185 180 175 179 250 273 312 345 348 350 351 357 4 9 9 3 2 6 358 356 354 352 351
214 212 143 189 194 207 220 221 186 236 168 222 209 221 214 211 210 212 212 214 205 199 192 188 174 148 110 67 31 3 1 2 3 18 10 15 9 6 4 2 357 359 358 358
233 165 199 208 214 214 236 225 194 168 184 252 202 297 195 196 202 214 215 216 214 199 189 185 173 155 134 79 23 12 7 9 10 15 17 19 19 13 6 1 3 5 1 4
207 203 203 213 218 209 253 189 181 184 214 177 193 262 106 187 205 210 212 214 214 183 191 177 167 154 126 72 37 21 15 17 19 21 25 28 21 16 7 11 10 9 6 6
260 192 215 222 176 205 148 143 157 188 193 237 174 222 206 175 215 199 198 190 180 180 170 159 149 140 109 56 23 15 19 24 24 27 25 24 20 16 11 8 9 10 12 15
214 224 200 165 128 155 189 167 181 218 210 273 124 219 282 155 171 191 185 171 176 171 165 156 151 143 112 53 29 18 26 28 26 26 25 21 16 10 8 9 6 8 9 14
214 201 184 194 200 192 202 214 263 259 275 335 145 244 104 110 142 185 169 167 170 169 164 160 155 142 118 61 37 32 30 33 27 26 24 10 9 4 8 6 7 6 9 6
199 222 178 202 203 214 172 228 14 276 240 270 253 145 171 167 175 170 154 164 166 165 160 160 153 138 110 63 45 40 47 38 34 24 16 9 11 15 16 11 12 8 5 1
54 189 195 155 179 206 246 145 200 211 263 266 187 284 295 178 174 167 165 168 166 165 159 161 159 137 107 69 46 54 56 46 31 21 17 15 18 19 19 14 15 9 9 4
228 272 146 171 207 191 175 199 233 303 311 305 303 7 28 161 179 177 170 170 167 168 164 166 162 137 116 77 51 65 51 39 25 12 18 17 23 21 22 19 18 15 12 7
209 268 192 194 37 291 296 271 200 254 211 253 298 303 53 99 161 172 168 164 166 168 166 167 165 149 125 89 81 76 58 43 17 11 10 22 23 25 25 20 16 22 18 17
164 212 174 170 164 161 223 182 227 237 270 261 291 30 69 159 152 169 163 162 164 167 168 171 170 162 160 144 121 124 77 33 17 21 26 25 24 23 21 21 23 19 21 20
198 187 241 208 186 187 182 196 194 228 258 258 260 329 151 166 166 168 165 166 168 173 175 181 180 179 177 173 163 154 113 53 40 34 27 28 23 23 23 25 22 15 16 14
206 196 164 86 114 114 224 179 187 224 254 285 12 304 135 182 178 173 169 169 172 179 184 188 188 188 186 190 190 180 150 110 71 35 26 26 25 34 35 28 25 21 20 18
190 142 144 96 186 145 175 185 193 166 171 196 268 239 85 157 167 173 178 176 180 185 189 192 189 186 189 202 202 198 187 160 90 26 19 27 31 43 41 32 26 18 21 19
170 148 179 133 34 124 208 200 193 186 193 282 239 77 149 165 177 183 181 183 186 188 190 192 187 185 192 202 202 198 192 189 145 29 30 44 47 50 42 32 25 21 20 15
151 136 105 107 134 219 71 209 224 230 199 200 146 152 171 176 178 184 184 183 186 188 188 190 182 179 184 197 198 196 195 203 206 339 45 50 44 39 24 13 2 1 4 6
217 134 98 165 222 347 239 207 198 206 220 209 190 160 157 152 155 180 183 185 186 186 186 185 177 173 177 191 209 200 206 211 216 239 278 35 36 32 3 353 356 355 357 357
121 108 196 162 238 237 5 131 181 187 246 173 173 167 157 156 188 182 183 179 177 177 178 175 168 165 163 166 186 200 211 214 221 249 259 269 266 353 347 358 356 352 346 351
175 189 201 149 198 222 143 148 163 220 87 156 170 172 169 187 42 135 163 169 170 169 170 169 165 164 168 162 117 197 220 224 225 248 263 265 282 318 339 349 345 343 341 345
202 207 192 201 222 238 148 148 215 66 98 152 165 171 172 155 133 143 156 161 162 162 164 163 164 165 170 169 142 323 314 245 224 253 265 272 287 306 313 343 349 346 336 334
209 319 321 282 34 115 172 67 113 105 133 154 162 166 164 153 146 149 156 158 159 162 165 164 167 167 179 185 210 270 316 304 236 259 276 280 289 302 303 340 340 348 343 337
163 142 264 207 159 171 183 173 159 152 140 151 161 160 161 153 149 151 157 157 158 164 165 162 170 175 187 209 254 275 305 295 247 268 289 287 293 301 306 327 328 342 348 346
46 155 182 200 167 182 204 196 167 148 137 143 148 156 157 152 152 155 159 158 159 165 165 164 173 180 186 204 237 270 299 290 222 277 299 299 296 308 319 323 327 337 345 348
181 167 206 132 144 56 119 170 157 148 145 148 149 153 155 155 154 156 157 158 162 166 167 165 174 173 160 190 223 237 291 283 221 261 330 318 316 333 331 333 327 332 339 347
Height
1512 1510 1511 1509 1506 1505 1503 1510 1514 1516 1526 1532 1532 1538 1545 1552 1554 1555 1558 1562 1564 1568 1571 1572 1573 1571 1571 1570 1569 1568 1566 1563 1560 1557 1553 1550 1548 1545 1542 1539 1534 1529 1524 1517
1512 1507 1500 1503 1507 1512 1508 1511 1514 1526 1530 1531 1530 1536 1543 1547 1549 1550 1553 1557 1561 1565 1568 1569 1569 1569 1570 1569 1568 1567 1565 1561 1558 1556 1552 1549 1547 1545 1541 1538 1534 1528 1523 1517
1501 1497 1500 1508 1511 1514 1510 1508 1513 1517 1531 1532 1533 1536 1543 1541 1546 1549 1551 1553 1556 1560 1564 1568 1569 1569 1570 1570 1568 1566 1563 1560 1556 1554 1552 1549 1548 1546 1542 1538 1533 1528 1521 1514
1502 1500 1503 1504 1506 1508 1510 1497 1505 1521 1527 1523 1527 1517 1526 1531 1540 1544 1547 1550 1553 1557 1561 1566 1568 1569 1570 1569 1567 1565 1562 1559 1557 1552 1552 1549 1548 1545 1542 1538 1533 1529 1522 1516
1503 1501 1504 1503 1500 1500 1500 1500 1506 1517 1515 1520 1530 1530 1509 1523 1533 1536 1540 1543 1548 1556 1561 1564 1567 1568 1569 1568 1566 1565 1562 1559 1557 1554 1551 1550 1548 1546 1543 1539 1534 1530 1525 1519
1495 1499 1497 1494 1499 1498 1505 1507 1512 1513 1508 1520 1499 1520 1496 1517 1520 1526 1533 1541 1550 1556 1560 1563 1565 1567 1568 1568 1567 1565 1562 1559 1557 1554 1551 1549 1547 1544 1542 1539 1535 1531 1526 1521
1497 1496 1495 1498 1501 1504 1502 1502 1513 1520 1512 1509 1506 1516 1499 1505 1514 1518 1528 1541 1550 1554 1559 1562 1564 1566 1567 1567 1566 1564 1561 1559 1557 1554 1552 1550 1547 1545 1542 1539 1535 1531 1527 1524
1497 1506 1491 1491 1489 1493 1494 1489 1495 1520 1509 1497 1509 1512 1498 1509 1519 1522 1527 1539 1547 1552 1556 1560 1563 1565 1566 1565 1564 1562 1561 1560 1558 1555 1553 1551 1548 1546 1542 1539 1535 1532 1529 1525
1487 1485 1478 1483 1485 1485 1489 1499 1483 1499 1499 1506 1486 1495 1514 1516 1518 1520 1528 1537 1545 1550 1556 1560 1562 1563 1564 1563 1562 1560 1560 1560 1558 1557 1554 1551 1548 1546 1543 1540 1536 1532 1529 1525
1482 1488 1480 1485 1487 1487 1482 1477 1498 1494 1515 1515 1489 1499 1489 1510 1515 1520 1528 1537 1544 1550 1555 1559 1562 1562 1562 1562 1561 1559 1560 1559 1559 1557 1553 1551 1549 1547 1544 1541 1536 1533 1529 1524
1480 1484 1486 1484 1483 1479 1486 1483 1485 1487 1490 1502 1501 1485 1494 1494 1507 1517 1526 1533 1542 1548 1553 1557 1560 1560 1561 1561 1561 1560 1560 1560 1559 1557 1554 1552 1550 1548 1545 1542 1538 1534 1530 1526
1476 1480 1485 1480 1482 1480 1472 1472 1478 1489 1495 1488 1495 1493 1502 1501 1506 1517 1524 1533 1540 1547 1551 1556 1558 1559 1560 1560 1560 1560 1560 1560 1559 1558 1555 1553 1551 1548 1546 1543 1539 1536 1532 1528
1475 1478 1489 1491 1486 1483 1478 1478 1477 1483 1484 1490 1499 1490 1505 1506 1509 1518 1524 1533 1540 1545 1550 1554 1556 1557 1558 1559 1559 1559 1560 1559 1559 1558 1556 1553 1551 1549 1546 1544 1541 1537 1533 1530
1470 1473 1472 1481 1476 1470 1484 1483 1479 1481 1488 1483 1485 1489 1503 1505 1511 1519 1525 1532 1538 1544 1548 1552 1554 1556 1557 1558 1558 1558 1558 1558 1559 1557 1555 1553 1551 1548 1547 1545 1542 1539 1534 1531
1469 1474 1475 1480 1481 1478 1477 1481 1481 1483 1483 1492 1487 1491 1493 1504 1510 1518 1525 1532 1537 1543 1547 1550 1552 1555 1557 1558 1558 1557 1557 1557 1557 1556 1555 1552 1550 1548 1547 1545 1542 1539 1536 1532
1472 1480 1476 1487 1484 1477 1482 1479 1482 1485 1487 1489 1490 1493 1498 1505 1511 1519 1525 1530 1535 1541 1545 1549 1551 1553 1555 1556 1556 1557 1557 1556 1555 1555 1554 1552 1551 1549 1547 1545 1543 1541 1537 1533
1470 1474 1479 1492 1487 1478 1495 1485 1484 1485 1483 1484 1492 1489 1499 1507 1511 1516 1522 1528 1534 1539 1544 1547 1550 1552 1554 1555 1555 1555 1555 1555 1555 1554 1553 1552 1551 1549 1547 1546 1544 1541 1537 1533
1471 1478 1479 1492 1488 1508 1486 1482 1482 1482 1483 1485 1490 1494 1500 1504 1510 1517 1521 1527 1532 1538 1542 1545 1547 1550 1552 1554 1554 1553 1553 1554 1555 1554 1553 1552 1551 1549 1547 1546 1543 1540 1537 1534
1466 1469 1487 1496 1492 1487 1482 1484 1484 1485 1482 1483 1486 1495 1501 1506 1512 1517 1520 1526 1531 1536 1540 1544 1546 1548 1550 1552 1552 1553 1553 1554 1554 1553 1552 1551 1550 1549 1547 1544 1542 1539 1537 1534
1468 1468 1470 1481 1496 1506 1481 1475 1480 1481 1486 1478 1486 1494 1500 1507 1507 1504 1517 1523 1529 1534 1538 1542 1544 1546 1549 1551 1551 1552 1552 1552 1553 1553 1552 1551 1549 1548 1546 1543 1541 1539 1536 1534
1469 1469 1471 1478 1487 1479 1476 1477 1482 1492 1486 1481 1487 1494 1500 1503 1502 1504 1514 1522 1528 1533 1538 1541 1543 1546 1549 1550 1552 1552 1551 1551 1552 1551 1551 1550 1549 1548 1545 1543 1540 1538 1535 1533
1468 1469 1470 1473 1479 1484 1473 1480 1482 1482 1484 1485 1488 1494 1499 1503 1506 1509 1515 1521 1527 1532 1537 1540 1544 1546 1548 1550 1551 1552 1551 1550 1550 1551 1550 1550 1549 1547 1546 1543 1540 1537 1535 1532
1472 1467 1464 1467 1465 1473 1474 1479 1481 1483 1484 1487 1490 1494 1499 1503 1507 1512 1517 1522 1527 1532 1537 1540 1543 1545 1548 1549 1550 1551 1551 1550 1549 1550 1549 1549 1548 1547 1545 1542 1540 1537 1534 1532
1464 1468 1463 1469 1471 1473 1476 1479 1481 1483 1485 1487 1491 1495 1499 1503 1507 1513 1519 1523 1528 1533 1537 1540 1542 1544 1546 1548 1548 1549 1549 1548 1548 1548 1547 1547 1546 1545 1544 1542 1540 1537 1534 1533
1459 1465 1465 1466 1470 1473 1474 1478 1480 1482 1484 1488 1492 1497 1501 1503 1509 1514 1519 1523 1528 1533 1536 1539 1542 1543 1544 1546 1547 1548 1548 1546 1545 1546 1546 1545 1545 1544 1542 1541 1539 1536 1535 1533
1459 1459 1460 1455 1462 1466 1470 1476 1480 1483 1485 1489 1493 1498 1502 1505 1509 1515 1520 1523 1528 1532 1536 1538 1541 1542 1543 1544 1546 1547 1547 1546 1545 1544 1545 1544 1544 1543 1541 1539 1537 1535 1533 1531